Regional Weather Roundup
Issued by NWS

Home | Current Version | Previous Version | Text Only | Print | Product List | Glossary Off
Versions: 1 2 3 4 5 6 7 8 9 10 11 12 13 14 15 16 17 18 19 20 21 22 23 24 25 26 27 28 29 30 31 32 33 34 35 36 37 38 39 40 41 42 43 44 45 46 47 48 49 50

874
ASUS44 KJAN 220403
RWRMS

MISSISSIPPI HOURLY WEATHER ROUNDUP
NATIONAL WEATHER SERVICE JACKSON MS
1100 PM CDT MON JUL 21 2014

NOTE: "FAIR: INDICATES FEW OR NO CLOUDS BELOW 12,000 FEET WITH NO
SIGNIFICANT WEATHER AND/OR OBSTRUCTIONS TO VISIBILITY.

MSZ001>002-007>008-010>013-018>021-025>028-034>036-220500-
NORTHWEST MISSISSIPPI

CITY           SKY/WX    TMP DP  RH WIND       PRES   REMARKS
CLARKSDALE     FAIR      73  73 100 CALM      30.05R
CLEVELAND      FAIR      72  72  99 NE3       30.03S
GREENWOOD      CLEAR     72  69  90 CALM      30.03S
GREENVILLE     CLEAR     73  70  90 N3        30.02S
GRENADA        FAIR      70  68  94 CALM      30.04S
OLIVE BRANCH   CLEAR     72  72 100 CALM      30.06S
OXFORD         FAIR      70  68  94 CALM      30.07S FOG
TUNICA         CLEAR     72  70  94 N3        30.05S
$$

MSZ003>006-009-014>017-022>024-029>033-037>039-220500-
NORTHEAST MISSISSIPPI

CITY           SKY/WX    TMP DP  RH WIND       PRES   REMARKS
BELMONT        FAIR      72  71  96 CALM      30.05S
COLUMBUS AFB   PTCLDY    75  72  91 CALM      30.03S
CORINTH        FAIR      73  70  88 CALM      30.05S FOG
GOLDN TRIANGLE PTCLDY    73  70  88 CALM      30.04S
STARKVILLE     FAIR      70  70 100 CALM      30.04S FOG
TUPELO         CLEAR     74  69  85 N5        30.04S
$$

MSZ040-058-220500-
CENTRAL MISSISSIPPI

CITY           SKY/WX    TMP DP  RH WIND       PRES   REMARKS
JACKSON INTL   CLEAR     76  71  85 CALM      30.02S
JACKSON HAWKNS CLEAR     78  69  73 N5        30.03R
MERIDIAN KEY   CLEAR     74  70  87 CALM      30.03R
MERIDIAN NAS   PTCLDY    74  71  91 CALM      30.03R
RAYMOND        FAIR      73  68  83 CALM      30.03S
VICKSBURG      CLEAR     71  69  93 N3        30.02S
$$

MSZ059>079-220500-
SOUTH MISSISSIPPI

CITY           SKY/WX    TMP DP  RH WIND       PRES   REMARKS
BROOKHAVEN     FAIR      72  72 100 CALM      30.04S
COLUMBIA       FAIR      72  72 100 CALM      30.00S FOG
HATTIESBURG    PTCLDY    77  71  82 CALM      30.01R
MCCOMB         CLEAR     76  70  82 CALM      30.02S
NATCHEZ        CLEAR     73  70  88 CALM      30.03S
PINE BELT      PTCLDY    73  70  88 CALM      30.03R
$$

MSZ080>082-220500-
COASTAL MISSISSIPPI

CITY           SKY/WX    TMP DP  RH WIND       PRES   REMARKS
BILOXI         CLEAR     80  72  75 CALM      30.01R
PASCAGOULA     CLOUDY    76  75  97 CALM      30.01R
GULFPORT       CLEAR     78  73  84 CALM      30.00R
$$



USA.gov is the U.S. government's official web portal to all federal, state and local government web resources and services.